Location: Houston
(29.7630°N, 95.3630°W)
Time: 06:22:42
(UTC-05:00)

ISS - All Passes

Search period start: 31 July 2015 00:00
Search period end: 10 August 2015 00:00
Orbit: 401 x 403 km, 51.6° (Epoch: 31 July)

Date Brightness Start Highest point End Pass type
(mag) Time Alt. Az. Time Alt. Az. Time Alt. Az.
31 Jul - 05:22:35 10° NNW 05:25:40 40° NE 05:28:46 10° ESE visible
31 Jul - 07:00:50 10° WSW 07:01:51 11° SW 07:02:42 10° SW daylight
31 Jul - 20:21:48 10° S 20:24:19 22° SE 20:26:55 10° ENE daylight
31 Jul - 21:58:04 10° W 22:00:42 22° NW 22:03:18 10° NNE visible
01 Aug - 04:30:06 10° N 04:32:35 20° NE 04:35:04 10° E visible
01 Aug - 06:06:15 10° WNW 06:08:59 25° SW 06:11:41 10° S visible
01 Aug - 21:04:28 10° WSW 21:07:36 46° NW 21:10:45 10° NNE visible
02 Aug - 03:38:27 10° NNE 03:39:20 11° NNE 03:40:20 10° NE visible
02 Aug - 05:12:52 10° NW 05:16:05 62° SW 05:19:17 10° SSE visible
02 Aug - 20:11:24 10° SW 20:14:36 69° SE 20:17:51 10° NE daylight
02 Aug - 21:50:53 10° NW 21:51:24 10° NNW 21:51:48 10° NNW visible
03 Aug - 04:19:55 10° NNW 04:23:06 51° NE 04:26:17 10° ESE night (unlit)
03 Aug - 19:18:55 10° S 19:21:42 27° SE 19:24:31 10° ENE daylight
03 Aug - 20:55:45 10° W 20:58:09 19° NW 21:00:30 10° N visible
04 Aug - 03:27:19 10° NNW 03:30:00 24° NE 03:32:43 10° E night (unlit)
04 Aug - 05:03:51 10° WNW 05:06:21 20° SW 05:08:46 10° S night (unlit)
04 Aug - 18:27:34 10° SSE 18:28:48 12° SE 18:30:11 10° ESE daylight
04 Aug - 20:01:57 10° WSW 20:05:00 37° NW 20:08:02 10° NNE daylight
05 Aug - 02:35:16 10° N 02:36:47 13° NE 02:38:23 10° ENE night (unlit)
05 Aug - 04:10:17 10° NW 04:13:26 47° SW 04:16:34 10° SSE night (unlit)
05 Aug - 19:08:43 10° SW 19:11:57 88° SE 19:15:12 10° NE daylight
06 Aug - 03:17:13 10° NW 03:20:26 66° NE 03:23:40 10° SE night (unlit)
06 Aug - 18:16:02 10° SSW 18:18:59 34° SE 18:21:59 10° ENE daylight
06 Aug - 19:53:24 10° WNW 19:55:32 16° NW 19:57:34 10° N daylight
07 Aug - 02:24:29 10° NNW 02:27:21 28° NE 02:30:14 10° ESE night (unlit)
07 Aug - 04:01:29 10° W 04:03:37 16° SW 04:05:40 10° SSW night (unlit)
07 Aug - 17:24:11 10° SSE 17:26:04 15° SE 17:28:02 10° E daylight
07 Aug - 18:59:23 10° WSW 19:02:18 30° NW 19:05:14 10° NNE daylight
08 Aug - 01:32:11 10° N 01:34:08 15° NE 01:36:08 10° ENE night (unlit)
08 Aug - 03:07:39 10° WNW 03:10:41 37° SW 03:13:43 10° SSE night (unlit)
08 Aug - 18:05:59 10° SW 18:09:12 72° NW 18:12:27 10° NE daylight
09 Aug - 02:14:27 10° NW 02:17:42 85° NE 02:20:57 10° SE night (unlit)
09 Aug - 17:13:06 10° SSW 17:16:12 43° SE 17:19:19 10° ENE daylight
09 Aug - 18:51:04 10° WNW 18:52:50 13° NW 18:54:30 10° N daylight
